Location: Unspecified
(20.0000°S, 0.0000°E)
Time: 01:21:12
(UTC+00:00)

NUDT-PHONESAT - Pass Details

Date: 26 July 2019
Orbit: 489 x 505 km, 97.4° (Epoch: 23 August)

Event Time Altitude Azimuth Distance (km) Brightness Sun altitude
Rises 19:06:47 0° 195° (SSW) 2,608 ? -20.1°
Reaches altitude 10° 19:09:39 10° 220° (SW) 1,712 ? -20.8°
Maximum altitude 19:11:41 14° 254° (WSW) 1,444 ? -21.2°
Drops below altitude 10° 19:13:44 10° 288° (WNW) 1,694 ? -21.7°
Sets 19:16:33 0° 313° (NW) 2,564 ? -22.3°
